Carbondale, IL

5:28 AM CDT on October 21, 2019 (GMT -0500)
Southern Illinois

Weather History for KMDH - July, 2019

Change the Weather History Date:

Friday, July 19, 2019

  Actual Average Record
Temperature  
Mean Temperature 84 °F -  
Max Temperature 93 °F 89 °F 105 °F (1930)
Min Temperature 77 °F 67 °F 52 °F (1959)
Cooling Degree Days 19    
Growing Degree Days 34 (Base 50)    
Moisture  
Dew Point 76 °F    
Average Humidity 78    
Maximum Humidity 94    
Minimum Humidity 59    
Precipitation  
Precipitation 0.00 in - - ()
Sea Level Pressure  
Sea Level Pressure 29.94 in    
Wind  
Wind Speed 8 mph (SSW)    
Max Wind Speed 14 mph    
Max Gust Speed 22 mph    
Visibility 10 miles    
Events      
Averages and records for this station are not official NWS values.
T = Trace of Precipitation, MM = Missing Value Source: NWS Daily Summary

Daily Weather History Graph

Daily Weather History Graph

Search for Another Location

Airport or City:

Astronomy

Jul. 19, 2019 Rise Set
Actual Time 5:49 AM CDT 8:16 PM CDT
Civil Twilight 5:19 AM CDT 8:46 PM CDT
Nautical Twilight 4:42 AM CDT 9:23 PM CDT
Astronomical Twilight 4:01 AM CDT 10:04 PM CDT
Moon 10:16 PM CDT (7/19) 8:14 AM CDT (7/19)
Length of Visible Light 15h 26m
Length of Day
14h 26m
Waning Gibbous, 93% of the Moon is Illuminated
Jul 19
Waning Gibbous
Jul 24
Last Quarter
Jul 31
New
Aug 7
First Quarter
Aug 15
Full

Hourly Weather History & Observations

Time (CDT) Temp. Heat Index Dew Point Humidity Pressure Visibility Wind Dir Wind Speed Gust Speed Precip Events Conditions
12:52 AM 80.1 °F 86.4 °F 78.1 °F 94% 29.93 in 9.0 mi SSW 9.2 mph - N/A   Clear
1:52 AM 80.1 °F 85.8 °F 77.0 °F 90% 29.93 in 9.0 mi SW 6.9 mph - N/A   Clear
2:52 AM 79.0 °F - 75.9 °F 90% 29.92 in 10.0 mi SSW 5.8 mph - N/A   Clear
3:52 AM 78.1 °F - 75.9 °F 93% 29.92 in 9.0 mi SSW 4.6 mph - N/A   Clear
4:52 AM 77.0 °F - 75.0 °F 94% 29.92 in 9.0 mi SSW 3.5 mph - N/A   Clear
5:52 AM 77.0 °F - 75.0 °F 94% 29.93 in 7.0 mi SW 4.6 mph - N/A   Clear
6:52 AM 78.1 °F - 75.9 °F 93% 29.95 in 7.0 mi South 6.9 mph - N/A   Clear
7:52 AM 81.0 °F 87.3 °F 75.9 °F 85% 29.97 in 10.0 mi SSW 9.2 mph - N/A   Clear
8:52 AM 84.0 °F 92.6 °F 75.9 °F 76% 29.99 in 10.0 mi SW 9.2 mph - N/A   Clear
9:52 AM 87.1 °F 96.3 °F 75.0 °F 67% 29.99 in 10.0 mi SW 10.4 mph - N/A   Clear
10:52 AM 88.0 °F 98.5 °F 75.9 °F 67% 29.98 in 10.0 mi SW 11.5 mph - N/A   Scattered Clouds
11:52 AM 90.0 °F 102.5 °F 77.0 °F 65% 29.97 in 10.0 mi SSW 9.2 mph - N/A   Partly Cloudy
12:52 PM 90.0 °F 102.5 °F 77.0 °F 65% 29.97 in 10.0 mi South 10.4 mph - N/A   Scattered Clouds
1:52 PM 91.9 °F 105.9 °F 77.0 °F 62% 29.96 in 10.0 mi South 13.8 mph - N/A   Partly Cloudy
2:52 PM 91.9 °F 103.9 °F 75.9 °F 59% 29.95 in 10.0 mi SSW 12.7 mph 21.9 mph N/A   Partly Cloudy
3:52 PM 91.9 °F 103.9 °F 75.9 °F 59% 29.94 in 10.0 mi SW 12.7 mph - N/A   Clear
4:52 PM 91.9 °F 103.9 °F 75.9 °F 59% 29.94 in 10.0 mi SSW 12.7 mph - N/A   Scattered Clouds
5:52 PM 91.0 °F 102.9 °F 75.9 °F 61% 29.93 in 10.0 mi SSW 11.5 mph - N/A   Partly Cloudy
6:52 PM 89.1 °F 100.2 °F 75.9 °F 65% 29.91 in 10.0 mi South 13.8 mph - N/A   Clear
7:52 PM 84.9 °F 94.1 °F 75.9 °F 74% 29.89 in 10.0 mi SSW 9.2 mph - N/A   Clear
8:52 PM 82.0 °F 89.4 °F 75.9 °F 82% 29.91 in 10.0 mi South 6.9 mph - N/A   Clear
9:52 PM 80.1 °F 85.4 °F 75.9 °F 87% 29.91 in 10.0 mi South 5.8 mph - N/A   Clear
10:52 PM 80.1 °F 85.4 °F 75.9 °F 87% 29.93 in 10.0 mi South 3.5 mph - N/A   Clear
11:52 PM 78.1 °F - 75.9 °F 93% 29.95 in 10.0 mi SE 3.5 mph - N/A   Clear